SCP
0 0 0 0 0 0 0 0 0 0 0 0 0 0 0 0 0 0 0 0 0 0
0 0 0 0 0 0 0 0 0 0 0 0 0 0 0 0 0 0 0 0 0 0
0 0 0 0 0 0 0 0 0 0 0 0 0 0 0 0 0 0 0 0 0 0
0 0 0 0 0 0 0 0 0 0 0 0 0 0 0 0 0 0 0 0 0 0
0 0 0 0 0 0 0 0 0 0 0 0 0 0 0 0 0 0 0 0 0 0
0 0 0 0 0 0 0 0 0 0 0 0 0 0 0 0 0 0 0 0 0 0
0 0 0 0 0 0 0 0 0 0 0 0 0 0 0 0 0 0 0 0 0 0
0 0 0 0 0 0 0 0 0 0 0 0 0 0 0 0 0 0 0 0 0 0
0 0 0 0 0 0 0 0 0 0 0 0 0 0 0 0 0 0 0 0 0 0
0 0 0 0 0 0 0 0 0 0 0 0 0 0 0 0 0 0 0 0 0 0
0 0 0 0 0 0 0 0 0 0 0 0 0 0 0 0 0 0 0 0 0 0
0 0 0 0 0 0 0 0 0 0 0 0 0 0 0 0 0 0 0 0 0 0
0 0 0 0 0 0 0 0 0 0 0 0 0 0 0 0 0 0 0 0 0 0
0 0 0 0 0 0 0 0 0 0 0 0 0 0 0 0 0 0 0 0 0 0
Wind_Speed_500mb
21 24 18 15 12 6 12 19 21 27 30 31 32 29 27 26 24 20 20 23 28 24
18 14 17 14 8 9 9 10 15 22 28 30 31 32 36 31 26 24 24 21 23 26
19 13 18 13 12 7 5 11 19 27 34 37 35 30 34 39 30 20 25 29 24 23
18 14 12 9 4 2 9 18 27 35 40 40 33 31 33 34 31 28 32 32 33 34
12 9 10 10 9 11 17 24 33 40 45 38 32 32 32 35 36 34 37 40 35 32
20 18 19 18 18 19 23 29 38 45 42 39 37 34 31 34 38 39 38 42 45 42
24 25 23 23 29 27 30 36 44 45 40 41 38 35 32 34 37 43 52 56 55 49
30 24 23 28 29 33 38 42 49 48 46 44 42 33 32 40 47 53 61 59 52 43
24 18 20 27 32 37 41 48 53 52 48 53 44 40 41 44 47 53 60 53 39 30
13 11 15 24 29 37 42 50 56 57 54 52 42 36 38 42 46 48 53 35 30 31
17 20 24 31 37 38 41 48 55 59 57 49 40 41 41 48 49 46 32 27 28 26
28 31 37 42 44 44 45 51 54 55 56 47 47 48 44 39 35 35 35 29 26 25
31 35 40 45 48 50 49 51 53 57 49 35 39 38 31 32 37 33 35 32 26 32
31 36 36 37 42 46 47 46 43 34 36 34 34 33 31 31 32 32 37 40 45 30
Wind_Direction_500mb
135 138 134 136 125 69 48 40 26 14 7 359 349 341 334 326 325 321 308 310 313 310
150 136 146 140 111 103 103 35 15 4 353 347 340 328 323 321 315 310 302 308 293 311
172 155 147 153 137 112 37 4 352 345 340 335 329 315 307 313 321 302 297 296 296 291
150 152 159 168 167 283 323 332 338 335 331 329 321 312 310 310 303 292 294 288 287 284
177 200 207 227 254 293 316 325 328 328 327 325 319 312 312 314 306 295 289 296 294 283
195 224 250 258 276 292 303 314 321 325 324 323 321 316 315 298 301 302 297 296 299 295
230 228 252 277 285 290 300 309 315 320 320 317 314 318 313 304 295 295 298 302 303 298
208 228 250 279 285 296 302 308 313 315 315 312 309 308 298 293 299 303 302 304 306 302
201 224 264 284 290 296 298 304 306 310 312 311 305 296 288 290 300 306 304 312 309 307
211 258 271 273 279 288 296 297 300 305 309 311 305 296 295 292 295 309 310 314 312 313
215 230 246 263 277 283 286 289 293 298 304 304 290 288 290 299 298 303 320 310 313 307
227 242 259 276 283 285 284 285 288 292 300 298 291 290 292 296 305 308 316 318 300 296
246 265 283 288 287 288 288 286 288 291 299 303 307 309 312 303 303 301 307 306 306 291
283 291 298 300 300 303 301 298 303 308 306 304 306 313 309 306 302 299 302 302 305 297
Wind_Speed_850mb
21 24 18 15 12 6 12 19 21 27 30 31 32 29 27 26 24 20 20 23 28 24
18 14 17 14 8 9 9 10 15 22 28 30 31 32 36 31 26 24 24 21 23 26
19 13 18 13 12 7 5 11 19 27 34 37 35 30 34 39 30 20 25 29 24 23
18 14 12 9 4 2 9 18 27 35 40 40 33 31 33 34 31 28 32 32 33 34
12 9 10 10 9 11 17 24 33 40 45 38 32 32 32 35 36 34 37 40 35 32
20 18 19 18 18 19 23 29 38 45 42 39 37 34 31 34 38 39 38 42 45 42
24 25 23 23 29 27 30 36 44 45 40 41 38 35 32 34 37 43 52 56 55 49
30 24 23 28 29 33 38 42 49 48 46 44 42 33 32 40 47 53 61 59 52 43
24 18 20 27 32 37 41 48 53 52 48 53 44 40 41 44 47 53 60 53 39 30
13 11 15 24 29 37 42 50 56 57 54 52 42 36 38 42 46 48 53 35 30 31
17 20 24 31 37 38 41 48 55 59 57 49 40 41 41 48 49 46 32 27 28 26
28 31 37 42 44 44 45 51 54 55 56 47 47 48 44 39 35 35 35 29 26 25
31 35 40 45 48 50 49 51 53 57 49 35 39 38 31 32 37 33 35 32 26 32
31 36 36 37 42 46 47 46 43 34 36 34 34 33 31 31 32 32 37 40 45 30
Wind_Direction_850mb
135 138 134 136 125 69 48 40 26 14 7 359 349 341 334 326 325 321 308 310 313 310
150 136 146 140 111 103 103 35 15 4 353 347 340 328 323 321 315 310 302 308 293 311
172 155 147 153 137 112 37 4 352 345 340 335 329 315 307 313 321 302 297 296 296 291
150 152 159 168 167 283 323 332 338 335 331 329 321 312 310 310 303 292 294 288 287 284
177 200 207 227 254 293 316 325 328 328 327 325 319 312 312 314 306 295 289 296 294 283
195 224 250 258 276 292 303 314 321 325 324 323 321 316 315 298 301 302 297 296 299 295
230 228 252 277 285 290 300 309 315 320 320 317 314 318 313 304 295 295 298 302 303 298
208 228 250 279 285 296 302 308 313 315 315 312 309 308 298 293 299 303 302 304 306 302
201 224 264 284 290 296 298 304 306 310 312 311 305 296 288 290 300 306 304 312 309 307
211 258 271 273 279 288 296 297 300 305 309 311 305 296 295 292 295 309 310 314 312 313
215 230 246 263 277 283 286 289 293 298 304 304 290 288 290 299 298 303 320 310 313 307
227 242 259 276 283 285 284 285 288 292 300 298 291 290 292 296 305 308 316 318 300 296
246 265 283 288 287 288 288 286 288 291 299 303 307 309 312 303 303 301 307 306 306 291
283 291 298 300 300 303 301 298 303 308 306 304 306 313 309 306 302 299 302 302 305 297